Location: Juzet
(42.9779°N, 0.7597°E)
Time: 19:06:16
(UTC+00:00)

SL-8 R/B - Pass Details

Date: 14 July 2020
Orbit: 656 x 668 km, 48.4° (Epoch: 12 August)

Event Time Altitude Azimuth Distance (km) Brightness Sun altitude
Exits shadow 01:46:36 33° 265° (W) 1,108 4.6 -21.1°
Maximum altitude 01:48:40 68° 339° (NNW) 714 3.9 -21.0°
Drops below altitude 10° 01:53:28 10° 63° (ENE) 2,081 7.0 -20.6°
Sets 01:55:50 0° 66° (ENE) 2,993 7.9 -20.4°
